Location: Ch�risy
(50.2331°N, 2.9131°E)
Time: 20:15:43
(UTC+00:00)

SeaSat 1 - Pass Details

Date: 17 January 2021
Orbit: 744 x 747 km, 108.0° (Epoch: 27 February)

Event Time Altitude Azimuth Distance (km) Brightness Sun altitude
Exits shadow 17:03:54 - 25° (NNE) 3,177 5.2 -7.4°
Reaches altitude 10° 17:06:17 10° 16° (NNE) 2,274 4.6 -7.8°
Maximum altitude 17:10:39 33° 314° (NW) 1,256 3.9 -8.4°
Drops below altitude 10° 17:15:00 10° 252° (WSW) 2,265 6.6 -9.0°
Sets 17:17:27 0° 242° (WSW) 3,186 8.0 -9.4°
